COSMOS 1410

导读 | 豆包AI

**COSMOS 1410卫星摘要** COSMOS 1410(宇宙1410)是苏联(现归属独联体CIS)在1982年9月24日发射的人造卫星,属于苏联“宇宙”系列卫星家族。该系列命名方式模糊卫星具体用途,保密性较强,绝大多数为军用或科研用途,多数卫星已退役成为太空垃圾在轨漂浮。

基本信息
目录编号:
13589
目录名称:
COSMOS 1410
国际标识:
1982-096A
轨道中心:
EARTH
卫星名称:
COSMOS 1410
卫星全名:
--
卫星状态:
在轨 (已飞行15925 天)
发射日期:
1982-09-24 UTC
国别 :
俄罗斯(独联体) (CIS)
星等 :
--
轨道信息
数据来源 国际轨道数据 AOE轨道数据
星历时间 2026-04-30T21:57:13+0800
17小时前
查看轨道信息
2026-05-01T03:00:00+0800
12小时前
查看轨道信息
半长轴 7874.792km 7874.792km
偏心率 0.0007267 0.0007275
轨道倾角 82.607° 82.606°
近地点辐角 60.829° 60.959°
升交点赤经 141.285° 141.154°
平近点角 59.083° 278.917°
近地点 1490.932km 1490.926km
远地点 1502.378km 1502.384km
周期 115.909分钟 115.909分钟
每日圈数 12.423505 12.423505
详细信息
使用方式:
暂无
2D轨道图
3D轨道图
轨道高度分析图
轨道倾角分析图
轨道综合分析图
查看轨道综合分析图